This is the latest recevied weather packets stored in our database for station/object KQ4OSL. If no packets are shown the sender has not sent any weather packets the latest 10 day(s).
| Time | Temp. | Humidity | Pressure | Rain* | Wind** | Luminosity | Snow |
|---|---|---|---|---|---|---|---|
| 1787435633 | 31.11° C | 58% | 1016.6 hPa | 0 mm | - | 79 W/m² | - |
| 1787435329 | 31.11° C | 58% | 1016.8 hPa | 0 mm | - | 63 W/m² | - |
| 1787435025 | 31.11° C | 59% | 1016.6 hPa | 0 mm | - | 175 W/m² | - |
| 1787434721 | 31.67° C | 57% | 1016.8 hPa | 0 mm | - | 256 W/m² | - |
| 1787434417 | 31.67° C | 54% | 1016.9 hPa | 0 mm | - | 270 W/m² | - |
| 1787434112 | 31.67° C | 54% | 1016.6 hPa | 0 mm | - | 288 W/m² | - |
| 1787433807 | 31.67° C | 54% | 1016.6 hPa | 0 mm | - | 300 W/m² | - |
| 1787433503 | 31.67° C | 53% | 1016.9 hPa | 0 mm | - | 318 W/m² | - |
| 1787433199 | 32.22° C | 53% | 1016.6 hPa | 0 mm | - | 332 W/m² | - |
| 1787432896 | 32.22° C | 54% | 1016.9 hPa | 0 mm | - | 352 W/m² | - |
| 1787432591 | 32.22° C | 55% | 1017 hPa | 0 mm | - | 369 W/m² | - |
| 1787432290 | 32.22° C | 52% | 1017 hPa | 0 mm | - | 381 W/m² | - |
| 1787431986 | 32.22° C | 53% | 1017 hPa | 0 mm | - | 395 W/m² | - |
| 1787431684 | 32.78° C | 54% | 1017 hPa | 0 mm | - | 411 W/m² | - |
| 1787431380 | 32.78° C | 51% | 1017 hPa | 0 mm | - | 426 W/m² | - |
| 1787431077 | 32.78° C | 50% | 1017.1 hPa | 0 mm | - | 440 W/m² | - |
| 1787430773 | 32.78° C | 53% | 1017.1 hPa | 0 mm | - | 454 W/m² | - |
| 1787430468 | 32.78° C | 51% | 1017.3 hPa | 0 mm | - | 469 W/m² | - |
| 1787430165 | 32.78° C | 53% | 1017.3 hPa | 0 mm | - | 486 W/m² | - |
| 1787429865 | 33.33° C | 51% | 1017.1 hPa | 0 mm | - | 497 W/m² | - |
| 1787429564 | 33.33° C | 55% | 1017.2 hPa | 0 mm | - | 511 W/m² | - |
| 1787429261 | 32.22° C | 53% | 1017.3 hPa | 0 mm | - | 527 W/m² | - |
| 1787428957 | 32.78° C | 53% | 1017.3 hPa | 0 mm | - | 533 W/m² | - |
| 1787428652 | 32.78° C | 52% | 1017.4 hPa | 0 mm | - | 545 W/m² | - |
| 1787428348 | 32.78° C | 50% | 1017.4 hPa | 0 mm | - | 559 W/m² | - |
* Rain latest hour (hover to see other rain measurements)
** Current wind speed in m/s (hover to see current wind gust speed)